Time,TemperatureF,DewpointF,PressureIn,WindDirection,WindDirectionDegrees,WindSpeedMPH,WindSpeedGustMPH,Humidity,HourlyPrecipIn,Conditions,Clouds,dailyrainin,SoftwareType,DateUTC
2013-07-09 00:01:00,69.0,68.0,30.07,East,94,0.0,0.0,97,0.00,,,0.28,,2013-07-09 04:01:00,
2013-07-09 00:22:00,68.0,67.0,30.07,East,98,1.0,1.0,97,0.00,,,0.28,,2013-07-09 04:22:00,
2013-07-09 00:34:00,68.0,67.0,30.07,East,98,1.0,1.0,97,0.00,,,0.28,,2013-07-09 04:34:00,
2013-07-09 00:43:00,68.0,67.0,30.08,SE,136,0.0,1.0,98,0.00,,,0.28,,2013-07-09 04:43:00,
2013-07-09 00:53:00,68.0,67.0,30.08,SE,136,0.0,1.0,98,0.00,,,0.28,,2013-07-09 04:53:00,
2013-07-09 01:02:00,68.0,67.0,30.08,SE,136,0.0,0.0,98,0.00,,,0.28,,2013-07-09 05:02:00,
2013-07-09 01:22:00,68.0,67.0,30.08,SE,137,0.0,0.0,98,0.00,,,0.28,,2013-07-09 05:22:00,
2013-07-09 01:33:00,68.0,67.0,30.08,SE,136,0.0,0.0,98,0.00,,,0.28,,2013-07-09 05:33:00,
2013-07-09 01:42:00,68.0,67.0,30.08,SE,137,0.0,0.0,98,0.00,,,0.28,,2013-07-09 05:42:00,
2013-07-09 01:52:00,68.0,67.0,30.08,SE,137,0.0,0.0,98,0.00,,,0.28,,2013-07-09 05:52:00,
2013-07-09 02:01:00,68.0,67.0,30.08,SE,136,0.0,0.0,98,0.00,,,0.28,,2013-07-09 06:01:00,
2013-07-09 02:11:00,68.0,67.0,30.08,SE,136,0.0,0.0,98,0.00,,,0.28,,2013-07-09 06:11:00,
2013-07-09 02:22:00,68.0,67.0,30.08,SE,136,0.0,0.0,98,0.00,,,0.28,,2013-07-09 06:22:00,
2013-07-09 02:34:00,67.0,66.0,30.07,SE,137,0.0,0.0,98,0.00,,,0.28,,2013-07-09 06:34:00,
2013-07-09 02:43:00,67.0,66.0,30.07,SE,136,0.0,0.0,98,0.00,,,0.28,,2013-07-09 06:43:00,
2013-07-09 02:53:00,67.0,66.0,30.07,SE,136,0.0,0.0,98,0.00,,,0.28,,2013-07-09 06:53:00,
2013-07-09 03:02:00,67.0,66.0,30.07,SE,136,0.0,0.0,98,0.00,,,0.28,,2013-07-09 07:02:00,
2013-07-09 03:12:00,67.0,66.0,30.07,SE,137,0.0,0.0,98,0.00,,,0.28,,2013-07-09 07:12:00,
2013-07-09 03:22:00,67.0,66.0,30.07,SE,137,0.0,0.0,98,0.00,,,0.28,,2013-07-09 07:22:00,
2013-07-09 03:34:00,67.0,66.0,30.07,SE,136,0.0,0.0,98,0.00,,,0.28,,2013-07-09 07:34:00,
2013-07-09 03:53:00,67.0,66.0,30.07,SE,137,0.0,0.0,98,0.00,,,0.28,,2013-07-09 07:53:00,
2013-07-09 04:01:00,67.0,67.0,30.07,SE,136,0.0,0.0,99,0.00,,,0.28,,2013-07-09 08:01:00,
2013-07-09 04:11:00,66.0,65.0,30.07,SE,136,0.0,0.0,98,0.00,,,0.28,,2013-07-09 08:11:00,
2013-07-09 04:22:00,66.0,65.0,30.07,SE,136,0.0,0.0,98,0.00,,,0.28,,2013-07-09 08:22:00,
2013-07-09 04:43:00,66.0,66.0,30.08,SE,137,0.0,0.0,99,0.00,,,0.28,,2013-07-09 08:43:00,
2013-07-09 04:52:00,66.0,66.0,30.08,SE,137,0.0,0.0,99,0.00,,,0.28,,2013-07-09 08:52:00,
2013-07-09 05:02:00,66.0,66.0,30.09,SE,137,0.0,0.0,99,0.00,,,0.28,,2013-07-09 09:02:00,
2013-07-09 05:22:00,66.0,66.0,30.09,South,182,0.0,0.0,99,0.00,,,0.28,,2013-07-09 09:22:00,
2013-07-09 05:34:00,66.0,66.0,30.09,South,182,0.0,0.0,99,0.00,,,0.28,,2013-07-09 09:34:00,
2013-07-09 05:42:00,66.0,66.0,30.10,South,183,0.0,0.0,99,0.00,,,0.28,,2013-07-09 09:42:00,
2013-07-09 05:53:00,66.0,66.0,30.10,South,183,0.0,0.0,99,0.00,,,0.28,,2013-07-09 09:53:00,
2013-07-09 06:02:00,66.0,66.0,30.10,South,181,0.0,0.0,99,0.00,,,0.28,,2013-07-09 10:02:00,
2013-07-09 06:11:00,66.0,66.0,30.10,South,181,0.0,0.0,99,0.00,,,0.28,,2013-07-09 10:11:00,
2013-07-09 06:22:00,66.0,66.0,30.10,SE,139,0.0,0.0,99,0.00,,,0.28,,2013-07-09 10:22:00,
2013-07-09 06:34:00,66.0,66.0,30.11,SE,139,0.0,0.0,99,0.00,,,0.28,,2013-07-09 10:34:00,
2013-07-09 06:42:00,66.0,66.0,30.11,West,264,0.0,0.0,99,0.00,,,0.28,,2013-07-09 10:42:00,
2013-07-09 06:52:00,66.0,66.0,30.11,West,264,0.0,0.0,99,0.00,,,0.28,,2013-07-09 10:52:00,
2013-07-09 07:02:00,66.0,66.0,30.11,West,264,0.0,0.0,99,0.00,,,0.28,,2013-07-09 11:02:00,
2013-07-09 07:11:00,66.0,66.0,30.11,West,264,0.0,0.0,99,0.00,,,0.28,,2013-07-09 11:11:00,
2013-07-09 07:22:00,68.0,68.0,30.12,West,266,0.0,0.0,99,0.00,,,0.28,,2013-07-09 11:22:00,
2013-07-09 07:34:00,69.0,69.0,30.11,ENE,71,1.0,3.0,99,0.00,,,0.28,,2013-07-09 11:34:00,
2013-07-09 07:42:00,68.0,68.0,30.12,WSW,248,0.0,3.0,99,0.00,,,0.28,,2013-07-09 11:42:00,
2013-07-09 07:53:00,68.0,68.0,30.12,WSW,248,0.0,3.0,99,0.00,,,0.28,,2013-07-09 11:53:00,
2013-07-09 08:02:00,69.0,69.0,30.12,NNE,26,2.0,3.0,99,0.00,,,0.28,,2013-07-09 12:02:00,
2013-07-09 08:12:00,70.0,70.0,30.12,ENE,60,0.0,3.0,99,0.00,,,0.28,,2013-07-09 12:12:00,
2013-07-09 08:22:00,70.0,70.0,30.12,ENE,60,0.0,3.0,99,0.00,,,0.28,,2013-07-09 12:22:00,
2013-07-09 08:33:00,70.0,69.0,30.13,WNW,291,0.0,1.0,98,0.00,,,0.28,,2013-07-09 12:33:00,
2013-07-09 08:43:00,70.0,69.0,30.13,ENE,68,0.0,1.0,98,0.00,,,0.28,,2013-07-09 12:43:00,
2013-07-09 08:52:00,70.0,69.0,30.13,ENE,68,0.0,1.0,98,0.00,,,0.28,,2013-07-09 12:52:00,
2013-07-09 09:22:00,71.0,70.0,30.13,SW,215,1.0,3.0,97,0.00,,,0.28,,2013-07-09 13:22:00,
2013-07-09 09:33:00,71.0,70.0,30.13,SSW,205,0.0,5.0,97,0.00,,,0.28,,2013-07-09 13:33:00,
2013-07-09 09:53:00,71.0,70.0,30.13,ENE,76,0.0,3.0,96,0.00,,,0.28,,2013-07-09 13:53:00,
2013-07-09 10:22:00,72.0,70.0,30.12,ENE,67,2.0,6.0,94,0.00,,,0.28,,2013-07-09 14:22:00,
2013-07-09 10:34:00,72.0,70.0,30.12,NNE,26,2.0,4.0,94,0.00,,,0.28,,2013-07-09 14:34:00,
2013-07-09 10:43:00,73.0,71.0,30.13,East,82,2.0,5.0,93,0.00,,,0.28,,2013-07-09 14:43:00,
2013-07-09 10:53:00,73.0,71.0,30.13,East,82,2.0,5.0,93,0.00,,,0.28,,2013-07-09 14:53:00,
2013-07-09 11:22:00,76.0,72.0,30.12,ENE,72,3.0,4.0,88,0.00,,,0.28,,2013-07-09 15:22:00,
2013-07-09 11:34:00,77.0,72.0,30.12,NNW,329,3.0,4.0,85,0.00,,,0.28,,2013-07-09 15:34:00,
2013-07-09 11:43:00,77.0,72.0,30.12,NNW,329,3.0,4.0,85,0.00,,,0.28,,2013-07-09 15:43:00,
2013-07-09 11:52:00,77.0,72.0,30.12,ENE,75,2.0,6.0,84,0.00,,,0.28,,2013-07-09 15:52:00,
2013-07-09 12:02:00,79.0,74.0,30.12,SSW,198,1.0,5.0,85,0.00,,,0.28,,2013-07-09 16:02:00,
2013-07-09 12:43:00,77.0,72.0,30.11,ESE,122,4.0,8.0,85,0.00,,,0.28,,2013-07-09 16:43:00,
2013-07-09 12:52:00,77.0,72.0,30.11,ESE,122,4.0,8.0,85,0.00,,,0.28,,2013-07-09 16:52:00,
2013-07-09 13:22:00,76.0,73.0,30.11,ENE,60,3.0,5.0,89,0.01,,,0.29,,2013-07-09 17:22:00,
2013-07-09 13:35:00,76.0,73.0,30.11,East,90,1.0,4.0,91,0.01,,,0.29,,2013-07-09 17:35:00,
2013-07-09 13:53:00,75.0,72.0,30.11,ESE,120,2.0,4.0,90,0.01,,,0.29,,2013-07-09 17:53:00,
2013-07-09 14:22:00,77.0,74.0,30.10,SW,226,0.0,1.0,90,0.01,,,0.30,,2013-07-09 18:22:00,
2013-07-09 14:32:00,77.0,72.0,30.10,East,79,1.0,2.0,85,0.01,,,0.30,,2013-07-09 18:32:00,
2013-07-09 14:43:00,77.0,72.0,30.10,East,79,1.0,2.0,85,0.01,,,0.30,,2013-07-09 18:43:00,
2013-07-09 14:52:00,78.0,73.0,30.09,ENE,70,2.0,5.0,85,0.01,,,0.30,,2013-07-09 18:52:00,
2013-07-09 15:01:00,80.0,74.0,30.09,WSW,238,2.0,6.0,82,0.01,,,0.30,,2013-07-09 19:01:00,
2013-07-09 15:11:00,80.0,74.0,30.09,WSW,238,2.0,6.0,82,0.01,,,0.30,,2013-07-09 19:11:00,
2013-07-09 15:22:00,81.0,73.0,30.09,SSW,207,2.0,9.0,77,0.00,,,0.30,,2013-07-09 19:22:00,
2013-07-09 15:52:00,79.0,74.0,30.09,ENE,70,2.0,6.0,84,0.00,,,0.30,,2013-07-09 19:52:00,
2013-07-09 16:02:00,79.0,73.0,30.08,NNW,345,2.0,5.0,82,0.00,,,0.30,,2013-07-09 20:02:00,
2013-07-09 16:11:00,79.0,73.0,30.08,NNW,345,2.0,5.0,82,0.00,,,0.30,,2013-07-09 20:11:00,
2013-07-09 16:22:00,81.0,72.0,30.08,WSW,250,3.0,6.0,75,0.00,,,0.30,,2013-07-09 20:22:00,
2013-07-09 16:32:00,81.0,73.0,30.08,SE,137,4.0,7.0,78,0.00,,,0.30,,2013-07-09 20:32:00,
2013-07-09 16:43:00,80.0,74.0,30.07,SW,218,5.0,9.0,81,0.00,,,0.30,,2013-07-09 20:43:00,
2013-07-09 16:52:00,80.0,74.0,30.07,SW,218,5.0,9.0,81,0.00,,,0.30,,2013-07-09 20:52:00,
2013-07-09 17:01:00,80.0,72.0,30.07,South,180,4.0,8.0,77,0.00,,,0.30,,2013-07-09 21:01:00,
2013-07-09 17:22:00,80.0,72.0,30.07,SW,224,2.0,9.0,76,0.00,,,0.30,,2013-07-09 21:22:00,
2013-07-09 17:32:00,79.0,71.0,30.07,SE,145,2.0,4.0,77,0.00,,,0.30,,2013-07-09 21:32:00,
2013-07-09 17:42:00,78.0,70.0,30.07,SSW,203,1.0,3.0,77,0.00,,,0.30,,2013-07-09 21:42:00,
2013-07-09 17:52:00,78.0,70.0,30.07,SSW,203,1.0,3.0,77,0.00,,,0.30,,2013-07-09 21:52:00,
2013-07-09 18:01:00,78.0,71.0,30.07,SSW,208,1.0,3.0,80,0.00,,,0.30,,2013-07-09 22:01:00,
2013-07-09 18:11:00,78.0,71.0,30.07,SSW,208,1.0,3.0,80,0.00,,,0.30,,2013-07-09 22:11:00,
2013-07-09 18:22:00,77.0,71.0,30.07,SE,130,2.0,4.0,82,0.00,,,0.30,,2013-07-09 22:22:00,
2013-07-09 18:33:00,77.0,71.0,30.06,SW,217,3.0,6.0,83,0.00,,,0.30,,2013-07-09 22:33:00,
2013-07-09 18:42:00,76.0,71.0,30.06,South,191,1.0,3.0,85,0.00,,,0.30,,2013-07-09 22:42:00,
2013-07-09 18:53:00,76.0,71.0,30.06,South,191,1.0,3.0,85,0.00,,,0.30,,2013-07-09 22:53:00,
2013-07-09 19:02:00,76.0,71.0,30.06,SSE,152,2.0,5.0,85,0.00,,,0.30,,2013-07-09 23:02:00,
2013-07-09 19:22:00,76.0,71.0,30.06,SE,146,2.0,4.0,85,0.00,,,0.30,,2013-07-09 23:22:00,
2013-07-09 19:33:00,76.0,72.0,30.06,South,191,0.0,3.0,86,0.00,,,0.30,,2013-07-09 23:33:00,
2013-07-09 19:43:00,76.0,72.0,30.05,SE,125,0.0,1.0,86,0.00,,,0.30,,2013-07-09 23:43:00,
2013-07-09 19:53:00,76.0,72.0,30.05,SE,125,0.0,1.0,86,0.00,,,0.30,,2013-07-09 23:53:00,
2013-07-09 20:01:00,75.0,71.0,30.06,South,183,0.0,0.0,87,0.00,,,0.30,,2013-07-10 00:01:00,
2013-07-09 20:11:00,75.0,71.0,30.06,ESE,103,0.0,0.0,88,0.00,,,0.24,,2013-07-10 00:11:00,
2013-07-09 20:22:00,75.0,71.0,30.06,ESE,103,0.0,0.0,88,0.00,,,0.24,,2013-07-10 00:22:00,
2013-07-09 20:33:00,76.0,72.0,30.05,ESE,103,0.0,0.0,87,0.00,,,0.24,,2013-07-10 00:33:00,
2013-07-09 20:42:00,75.0,72.0,30.05,ESE,103,0.0,0.0,89,0.00,,,0.24,,2013-07-10 00:42:00,
2013-07-09 20:52:00,75.0,72.0,30.05,ESE,103,0.0,0.0,89,0.00,,,0.24,,2013-07-10 00:52:00,
2013-07-09 21:01:00,74.0,71.0,30.06,ESE,103,0.0,0.0,91,0.00,,,0.24,,2013-07-10 01:01:00,
2013-07-09 21:11:00,74.0,71.0,30.06,ESE,103,0.0,0.0,91,0.00,,,0.24,,2013-07-10 01:11:00,
2013-07-09 21:22:00,74.0,71.0,30.06,ESE,103,0.0,0.0,91,0.00,,,0.24,,2013-07-10 01:22:00,
2013-07-09 21:33:00,73.0,71.0,30.07,ESE,103,0.0,0.0,92,0.00,,,0.02,,2013-07-10 01:33:00,
2013-07-09 21:53:00,73.0,71.0,30.07,ESE,103,0.0,0.0,93,0.00,,,0.02,,2013-07-10 01:53:00,
2013-07-09 22:02:00,72.0,70.0,30.08,ESE,103,0.0,0.0,94,0.00,,,0.02,,2013-07-10 02:02:00,
2013-07-09 22:23:00,72.0,70.0,30.08,ESE,103,0.0,0.0,95,0.00,,,0.02,,2013-07-10 02:23:00,
2013-07-09 22:34:00,72.0,70.0,30.08,ESE,103,0.0,0.0,95,0.00,,,0.02,,2013-07-10 02:34:00,
2013-07-09 22:53:00,71.0,70.0,30.09,ESE,103,0.0,0.0,96,0.00,,,0.02,,2013-07-10 02:53:00,
2013-07-09 23:01:00,71.0,70.0,30.08,ESE,103,0.0,0.0,96,0.00,,,0.02,,2013-07-10 03:01:00,
2013-07-09 23:22:00,71.0,70.0,30.08,ESE,103,0.0,0.0,97,0.00,,,0.02,,2013-07-10 03:22:00,
2013-07-09 23:52:00,72.0,71.0,30.08,WSW,257,0.0,0.0,97,0.00,,,0.02,,2013-07-10 03:52:00,